SCP
-0 0 0 0 0 0 -0 0 -0 -0 -0 0 0 0 -0 -0 0 0 0 0 0 -0 -0 -0 -0 -0 -0 -0 0 0 0 0 0 0 0 0 -0 -0 -0 0 -0 -0 -0 -0 0 0 0 0 0
0 0 0 0 0 0 0 0 -0 0 -0 0 0 0 0 0 -0 0 -0 0 0 0 0 0 0 -0 0 -0 0 0 0 0 0 0 0 0 -0 -0 -0 0 0 0 -0 -0 0 0 0 0 0
0 0 0 0 0 0 0 0 0 0 -0 -0 0 0 0 -0 -0 0 0 -0 -0 0 0 0 0 0 0 0 0 0 0 0 0 0 0 0 0 0 0 0 0 -0 0 0 0 0 0 0 0
-0 -0 -0 -0 -0 0 0 0 0 0 0 0 0 0 0 -0 0 0 0 0 0 0 0 0 0 0 0 0 0 0 0 0 0 0 0 0 0 0 0 0 0 0 0 0 0 0 0 0 0
-0 -0 -0 0 0 -0 0 0 0 0 0 0 0 -0 0 0 0 0 0 0 0 0 0 0 0 0 0 0 0 0 0 0 0 0 0 0 0 0 0 0 0 0 0 0 0 0 0 0 0
-0 -0 -0 0 -0 -0 0 0 0 0 0 0 0 0 0 -0 0 -0 0 0 0 0 0 0 0 0 0 0 0 0 0 0 0 0 0 0 0 0 0 0 0 0 0 0 0 0 0 0 0
0 0 0 0 -0 0 0 0 0 0 0 0 0 0 0 0 0 0 0 0 0 0 0 0 0 0 0 0 0 0 0 0 0 0 0 0 0 0 0 0 0 0 0 0 0 0 0 0 0
-0 0 -0 0 0 0 0 0 0 0 0 0 0 0 0 0 0 0 0 0 0 0 0 0 0 0 0 0 0 0 0 0 0 0 0 0 0 0 0 0 0 0 0 0 0 0 0 0 0
0 -0 -0 0 0 0 0 0 0 -0 0 0 0 0 0 0 0 0 0 0 0 0 0 0 0 0 0 0 0 0 0 0 0 0 0 0 0 0 0 0 0 0 0 0 0 0 0 0 0
0 -0 0 0 0 0 0 0 0 0 0 0 0 0 0 0 0 0 0 0 0 0 0 0 0 0 0 0 0 0 0 0 0 0 0 0 0 0 -0 0 0 0 0 0 0 0 0 0 0
-0 0 -0 0 0 0 0 0 0 0 0 -0 0 0 0 0 0 0 0 0 0 0 0 0 0 0 0 0 0 0 0 0 0 0 0 0 0 0 0 0 0 0 0 0 0 0 0 0 0
0 0 0 0 0 0 0 0 0 0 0 -0 -0 -0 -0 0 0 0 0 0 0 0 0 0 0 0 0 0 0 0 0 0 0 0 0 0 0 0 0 0 0 0 0 0 0 0 0 0 0
0 0 0 0 0 0 0 0 0 0 0 -0 0 0 0 0 0 0 0 0 0 0 0 0 0 0 0 0 0 0 0 0 0 0 0 0 0 0 0 0 0 0 0 0 0 0 0 0 0
0 0 0 0 0 0 0 0 0 0 0 0 0 0 0 0 0 0 0 0 0 0 0 0 0 0 0 0 0 0 0 0 0 0 0 0 0 0 0 0 0 0 0 0 0 0 0 0 0
0 0 0 0 0 0 0 0 0 0 0 0 0 0 0 0 0 0 0 0 0 0 0 0 0 0 0 0 0 0 0 0 0 0 0 0 0 0 0 0 0 0 0 0 0 0 0 0 0
0 0 0 0 0 0 0 0 0 0 0 0 0 0 0 0 0 0 0 0 0 0 0 0 0 0 0 0 0 0 0 0 0 0 0 0 0 0 0 0 0 0 0 0 0 0 0 0 0
0 0 0 0 0 0 0 0 0 0 0 0 0 0 0 0 0 0 0 0 0 0 0 0 0 0 0 0 0 0 0 0 0 0 0 0 0 0 0 0 0 0 0 0 0 0 0 0 0
0 0 0 0 0 0 0 0 0 0 0 0 0 0 0 0 0 -0 -0 0 0 0 0 0 0 0 0 0 0 0 0 0 0 0 0 0 0 0 0 0 0 0 0 0 0 0 0 0 0
0 0 0 0 0 0 0 0 0 0 0 0 0 0 0 0 -0 -0 -0 -0 -0 0 0 0 0 0 0 0 1 0 0 0 0 0 0 0 0 0 0 0 0 0 0 0 0 0 0 0 0
0 0 0 0 0 0 0 0 0 0 0 0 0 0 0 -0 -0 -0 -0 -0 -0 -0 0 0 0 0 0 0 1 0 0 0 0 0 0 0 0 0 0 0 0 0 0 0 0 0 0 0 0
0 0 0 0 0 0 0 0 0 0 0 0 0 0 0 0 -0 -0 -0 -0 -0 0 0 0 0 0 0 0 0 1 0 0 0 0 0 0 0 0 0 0 0 0 0 0 0 0 0 0 0
0 0 0 0 0 0 0 0 0 0 0 0 0 0 0 0 -0 -0 -0 0 0 0 0 0 0 0 0 0 0 0 0 0 0 0 0 0 0 0 0 0 0 0 0 0 0 0 0 0 0
0 0 0 0 0 0 0 0 0 0 0 0 0 0 0 0 0 -0 -0 0 0 0 0 0 0 0 0 0 1 1 0 0 0 0 0 0 0 0 0 0 0 0 0 0 0 0 0 0 0
0 0 0 0 0 0 0 0 0 0 0 0 0 0 0 0 0 -0 -0 0 0 0 0 0 0 0 0 0 1 1 0 0 0 0 0 0 0 0 0 0 0 0 0 0 0 0 0 0 0
0 0 0 0 0 0 0 0 0 0 0 0 0 0 0 0 0 -0 -0 -0 0 0 -0 -0 0 0 0 0 0 0 0 0 0 0 0 0 0 0 0 0 0 0 0 0 0 0 0 0 0
0 0 0 0 0 0 0 0 0 0 0 0 0 0 0 0 0 -0 -0 0 0 0 -0 -0 -0 0 0 0 0 0 0 0 0 0 0 0 0 0 0 0 0 0 0 0 0 0 0 0 0
0 0 0 0 0 0 0 0 0 0 0 0 0 0 0 0 0 0 -0 0 -0 -0 0 -0 -0 -0 0 0 0 0 0 0 0 0 0 0 0 0 0 0 0 0 0 0 0 0 0 0 0
0 0 0 0 0 0 0 0 0 0 0 0 0 0 0 0 0 0 -0 -0 0 -0 -0 -0 -0 0 0 0 -0 0 0 0 0 0 0 0 0 0 0 0 0 0 0 0 0 0 0 0 0
0 0 0 0 0 0 0 0 0 0 0 0 0 0 0 0 0 0 -0 -0 -0 0 0 -0 -0 -0 -0 -0 -0 -0 0 0 0 0 0 0 0 0 0 0 0 0 0 0 0 0 0 0 0
0 0 0 0 0 0 0 0 0 0 0 0 0 0 0 0 0 0 0 0 0 -0 -0 -0 -0 -0 -0 -0 -0 -0 0 0 0 0 0 0 0 0 0 0 0 0 -0 -0 0 0 0 0 0
Wind_Speed_500mb
9 7 7 6 3 4 21 15 31 27 17 27 32 22 40 43 20 6 13 11 9 19 21 28 25 21 18 18 20 19 15 15 13 14 20 13 21 21 15 15 5 6 11 13 7 5 16 17 20
4 4 6 8 4 6 3 14 25 13 30 34 31 33 29 16 64 13 27 17 11 23 18 29 26 22 20 19 18 17 18 16 14 14 24 17 21 17 16 9 2 5 9 10 2 5 14 14 15
4 3 9 6 5 7 6 23 22 32 42 46 20 25 14 30 41 31 35 16 9 22 17 21 21 19 21 19 19 15 19 19 18 18 27 20 16 16 8 11 8 7 7 6 3 9 13 12 11
9 6 13 6 34 27 16 17 29 29 20 50 41 20 20 48 36 46 32 12 5 14 19 16 19 20 20 18 17 15 16 20 22 23 29 23 17 15 12 14 17 12 8 8 9 11 12 11 10
7 12 7 4 36 23 21 30 31 22 19 45 36 12 16 44 43 52 44 10 13 11 21 13 22 22 20 18 16 16 16 17 22 32 31 27 18 13 12 17 21 18 13 13 12 11 11 9 7
11 7 5 12 34 31 24 32 36 36 36 43 30 21 13 37 52 51 53 10 16 14 16 19 24 24 22 19 17 18 16 15 24 30 25 25 21 19 20 16 13 13 12 14 14 11 11 8 6
9 6 17 18 26 18 20 26 31 29 34 37 35 10 18 52 60 44 49 35 10 24 15 21 22 29 27 22 23 24 23 19 27 27 22 25 24 21 18 12 11 10 11 11 11 10 9 7 5
11 3 16 18 16 9 21 25 31 21 22 24 39 17 23 53 51 39 37 36 22 15 20 23 29 28 30 27 28 29 29 27 25 30 30 30 22 16 17 18 15 14 13 9 11 11 10 9 8
9 8 11 5 11 7 23 15 29 8 24 32 31 31 38 47 43 40 33 37 30 16 24 23 25 27 27 28 31 34 31 30 26 29 34 35 33 28 24 25 21 17 17 15 15 14 13 11 11
10 8 7 9 14 10 17 26 23 15 41 26 47 43 47 46 44 41 39 36 37 26 21 27 35 28 28 23 26 38 38 35 32 30 26 25 25 23 25 29 22 21 21 20 19 17 15 13 13
14 9 19 12 9 10 13 17 31 32 20 35 47 58 56 50 45 42 42 39 36 30 27 31 36 43 39 37 30 36 44 41 36 38 35 28 23 33 29 32 29 26 25 23 21 20 18 18 15
11 17 18 12 10 10 8 2 20 28 19 28 33 40 46 54 50 47 48 46 37 30 29 28 37 43 45 36 43 39 46 47 48 47 41 41 39 47 41 37 29 24 26 22 23 21 20 21 19
23 16 19 9 14 14 22 15 3 30 29 29 33 38 45 49 51 51 47 45 43 39 32 27 29 43 45 47 47 49 47 48 52 50 41 40 44 44 32 27 26 23 21 22 23 25 25 25 23
21 25 17 16 11 9 9 4 18 24 26 32 37 39 44 48 53 55 53 51 48 46 45 35 31 37 52 51 55 52 56 47 40 39 44 46 44 38 33 31 29 29 27 28 25 25 23 25 25
30 13 13 18 2 4 11 12 12 21 27 34 39 40 44 50 56 58 57 60 55 53 49 49 40 36 42 62 59 51 59 55 53 38 46 49 49 40 40 35 31 29 30 29 29 29 31 30 28
7 10 7 7 11 6 2 10 15 22 30 39 42 44 49 51 57 61 65 59 56 59 55 48 47 42 46 48 63 50 63 66 54 58 59 54 52 52 45 41 34 30 29 30 33 32 29 28 25
9 2 8 8 8 7 11 9 13 21 32 40 44 49 54 57 63 73 71 66 55 61 64 57 47 48 43 52 62 65 66 64 52 64 62 53 52 50 50 44 38 34 33 35 35 29 31 30 26
5 4 3 3 7 12 7 8 6 17 34 43 46 54 61 66 77 80 77 78 72 68 69 64 54 48 54 48 55 64 66 68 59 56 69 58 56 53 48 45 43 38 36 36 36 34 33 33 29
13 12 8 7 7 8 12 11 6 15 37 44 52 56 57 67 85 93 93 91 81 72 77 70 66 55 44 45 66 62 74 73 67 57 61 69 59 54 49 51 49 48 47 42 38 36 35 37 32
13 7 7 2 4 6 16 16 12 8 33 44 48 56 68 96 92 99 98 93 89 85 82 72 65 54 50 59 61 64 68 77 66 63 60 59 63 59 56 54 50 49 48 43 40 40 41 40 32
12 9 9 8 12 16 14 13 13 10 38 40 51 51 69 88 87 102 106 99 87 76 69 66 58 45 56 61 49 63 60 64 73 68 68 64 60 61 63 57 56 51 48 49 43 46 45 45 40
2 8 7 12 10 2 2 7 9 14 19 33 50 52 67 74 77 85 99 98 83 75 62 52 45 39 56 60 47 63 62 65 67 66 68 68 61 58 63 62 64 60 52 49 48 46 45 48 48
5 6 7 8 9 8 11 3 3 14 17 23 39 50 66 77 76 85 97 95 86 74 64 45 36 36 46 58 45 57 54 63 53 56 54 55 57 53 54 56 54 56 56 56 57 55 52 51 54
2 9 9 6 6 2 10 8 6 7 6 17 35 50 57 67 73 79 98 105 94 68 62 31 25 15 28 39 46 50 47 55 39 40 45 38 32 48 55 59 56 50 59 57 52 53 57 54 52
7 7 3 6 3 7 11 3 4 10 15 25 33 45 56 67 74 88 95 109 105 81 70 67 27 5 20 30 48 50 48 40 42 37 25 38 41 29 18 3 4 20 30 29 50 60 54 50 51
4 5 3 7 4 6 9 5 7 12 32 34 40 45 57 69 70 86 86 93 103 88 77 62 60 54 43 35 44 46 40 35 49 54 51 53 47 45 43 47 46 24 12 23 29 35 34 29 33
7 4 5 1 2 1 7 7 5 14 16 35 42 50 58 65 66 77 84 87 94 102 89 83 72 68 71 71 78 75 66 63 59 61 62 54 55 52 55 52 59 58 45 50 49 49 43 37 37
4 3 2 1 2 7 3 4 4 13 21 21 35 46 52 57 61 67 81 87 81 90 93 92 88 87 81 91 94 94 87 76 71 69 70 64 62 61 61 60 58 60 59 51 54 54 47 48 48
5 4 4 3 2 4 5 5 7 11 11 13 27 34 42 48 52 58 71 79 84 80 86 92 100 98 91 96 100 99 98 92 81 73 68 68 66 59 61 67 60 46 41 34 34 36 33 31 29
6 4 11 5 7 6 3 8 9 7 14 19 23 28 34 38 43 49 57 70 88 88 84 83 86 99 105 96 92 90 85 82 72 69 60 55 47 45 45 43 39 37 32 31 31 31 29 26 23
Wind_Direction_500mb
273 273 337 345 250 0 4 31 43 26 7 349 323 323 93 51 6 50 32 349 99 236 215 194 188 187 181 182 191 186 179 178 174 172 171 178 180 153 155 155 148 40 17 11 19 120 106 105 106
242 238 340 275 228 55 41 341 24 36 46 0 3 342 48 57 22 32 347 11 135 232 233 206 189 194 193 198 201 197 204 193 188 177 171 147 147 151 171 173 103 346 346 348 321 130 116 113 108
164 90 283 210 50 64 148 5 354 17 30 14 356 35 58 351 6 349 331 36 161 225 237 214 206 201 199 205 221 213 208 205 197 183 179 164 158 173 233 270 291 301 312 308 181 138 124 124 117
96 230 255 267 99 58 49 9 12 1 34 12 349 68 74 37 12 353 339 82 197 233 241 233 219 206 206 221 225 217 208 199 194 189 183 196 189 184 210 254 284 281 268 245 167 146 139 133 120
4 262 243 132 89 92 46 11 11 6 30 13 21 77 91 10 12 9 5 128 163 207 251 272 230 223 216 228 229 212 203 203 194 180 182 190 192 241 241 251 267 264 238 216 168 167 162 151 137
268 268 347 93 76 46 32 6 13 9 23 18 2 348 102 349 353 9 358 351 170 188 246 248 243 226 227 227 217 196 189 195 184 176 194 201 214 230 249 269 266 252 205 180 193 186 187 185 190
314 19 45 62 107 60 22 1 24 2 26 34 356 54 325 347 345 1 352 355 238 200 256 253 255 229 228 228 212 201 193 186 192 202 210 211 220 216 247 266 282 247 214 193 188 200 207 215 238
326 49 77 18 64 71 20 8 23 16 43 33 24 17 333 336 339 349 347 357 338 219 220 244 246 236 234 230 216 207 206 194 206 224 234 240 245 237 244 264 267 249 247 213 209 218 227 242 260
337 56 75 47 30 39 20 5 8 336 43 31 14 358 335 334 343 344 348 341 352 320 235 228 232 247 250 245 221 207 207 219 223 231 234 245 241 245 251 260 259 242 243 238 234 237 243 253 268
32 86 112 56 35 20 15 31 2 1 26 0 349 352 347 346 348 346 342 335 334 339 299 229 232 226 230 236 245 209 216 215 223 226 235 243 232 254 272 259 253 248 243 242 242 243 246 256 265
9 112 128 86 71 31 7 36 45 20 20 359 340 341 345 347 347 344 336 331 324 324 323 273 238 230 227 212 229 229 225 221 227 234 217 234 210 233 240 259 265 254 246 242 242 245 247 250 256
90 83 101 114 85 22 58 26 72 44 10 340 341 342 345 346 347 343 333 332 333 324 318 296 266 230 229 230 219 229 233 228 222 230 226 215 204 227 242 254 254 246 237 241 244 249 252 255 260
90 97 96 96 144 41 97 70 24 28 3 356 354 356 357 353 347 342 338 331 324 316 290 292 280 254 229 228 223 215 236 228 224 228 224 218 221 232 247 250 249 253 242 246 231 249 252 262 262
126 116 115 72 130 29 107 142 57 18 1 4 5 4 360 358 352 345 342 333 329 319 308 280 277 274 240 230 230 228 231 231 223 225 226 230 232 232 242 247 246 240 239 240 247 245 259 269 273
127 111 113 34 77 59 325 85 56 12 5 9 7 6 4 0 356 350 340 333 323 318 311 299 265 268 269 236 234 229 233 234 226 221 233 245 226 233 240 248 249 246 240 240 244 250 251 258 263
241 187 176 53 359 161 299 112 56 18 11 11 5 4 2 358 356 348 337 324 325 313 308 295 287 251 268 263 238 233 231 239 236 222 235 244 229 226 237 246 250 252 244 241 251 248 261 265 263
201 224 80 146 28 294 229 80 67 25 19 9 4 4 1 354 354 346 337 331 323 315 302 298 275 267 250 259 247 237 226 239 238 225 228 235 232 229 233 238 248 251 242 238 247 249 253 257 257
159 134 15 346 37 316 264 164 106 29 25 7 5 7 1 359 352 347 336 326 323 307 305 299 285 265 239 253 253 238 234 233 240 225 221 226 231 234 233 242 245 246 246 245 245 247 243 255 255
16 35 357 78 60 329 253 274 192 41 29 6 9 5 6 356 348 347 344 340 328 314 308 295 287 256 248 241 244 236 233 231 228 231 227 227 231 232 239 241 243 248 252 253 249 243 245 247 245
4 320 43 316 90 290 298 276 282 56 40 12 11 7 6 358 353 349 346 339 333 320 314 296 277 265 237 228 246 241 234 236 233 227 231 227 227 229 233 241 253 247 250 252 250 242 239 247 246
60 13 11 316 318 250 282 267 189 105 35 7 13 8 1 357 348 346 346 342 339 331 317 300 276 263 230 220 240 238 236 238 234 231 228 230 230 234 236 240 246 251 253 254 252 253 244 243 243
225 40 325 295 338 356 331 292 97 44 17 10 7 7 358 355 351 347 343 349 347 347 333 307 282 265 231 203 233 230 230 225 233 235 237 235 241 238 241 242 245 250 251 249 254 260 255 245 242
72 340 308 299 296 16 191 100 40 57 0 4 0 7 356 357 352 350 354 358 357 2 351 313 291 269 221 199 229 228 231 231 235 239 250 243 234 230 229 231 238 246 247 245 250 254 254 250 251
343 248 219 267 256 317 121 97 314 21 341 3 12 6 356 357 355 358 8 14 5 16 18 347 308 261 208 200 223 226 225 225 227 220 221 232 222 206 217 225 231 235 236 242 245 251 252 247 245
220 252 301 350 349 236 130 161 125 57 37 20 21 4 1 2 0 4 10 11 10 16 38 44 43 134 195 212 214 196 198 194 175 149 133 101 92 64 49 308 296 295 304 292 248 260 250 238 239
73 357 160 228 297 319 140 226 145 74 46 29 24 7 11 9 6 11 15 17 19 17 39 59 62 76 102 163 149 153 150 138 125 121 107 101 91 81 77 76 81 85 131 133 125 109 111 134 118
142 187 19 57 360 320 232 111 107 44 32 28 22 9 13 9 8 9 16 24 29 32 32 48 66 73 91 84 99 107 106 106 104 102 101 98 95 98 93 92 90 82 80 87 90 87 89 83 86
317 59 102 1 304 280 214 227 188 14 11 17 20 8 11 11 13 14 22 25 33 41 37 51 67 65 90 95 99 104 105 108 107 103 97 96 99 101 98 89 86 87 82 82 85 85 81 79 81
166 181 214 18 254 261 296 247 65 43 25 26 30 13 17 15 17 20 30 32 40 44 49 48 56 65 78 84 94 94 94 97 97 97 97 95 97 92 90 86 82 86 88 89 85 85 84 83 83
331 302 183 147 204 252 5 271 109 83 59 49 42 20 22 24 22 29 41 47 47 52 58 58 60 58 65 69 75 78 85 84 84 94 85 90 89 89 91 94 94 91 86 85 83 80 76 69 66
Wind_Speed_850mb
9 7 7 6 3 4 21 15 31 27 17 27 32 22 40 43 20 6 13 11 9 19 21 28 25 21 18 18 20 19 15 15 13 14 20 13 21 21 15 15 5 6 11 13 7 5 16 17 20
4 4 6 8 4 6 3 14 25 13 30 34 31 33 29 16 64 13 27 17 11 23 18 29 26 22 20 19 18 17 18 16 14 14 24 17 21 17 16 9 2 5 9 10 2 5 14 14 15
4 3 9 6 5 7 6 23 22 32 42 46 20 25 14 30 41 31 35 16 9 22 17 21 21 19 21 19 19 15 19 19 18 18 27 20 16 16 8 11 8 7 7 6 3 9 13 12 11
9 6 13 6 34 27 16 17 29 29 20 50 41 20 20 48 36 46 32 12 5 14 19 16 19 20 20 18 17 15 16 20 22 23 29 23 17 15 12 14 17 12 8 8 9 11 12 11 10
7 12 7 4 36 23 21 30 31 22 19 45 36 12 16 44 43 52 44 10 13 11 21 13 22 22 20 18 16 16 16 17 22 32 31 27 18 13 12 17 21 18 13 13 12 11 11 9 7
11 7 5 12 34 31 24 32 36 36 36 43 30 21 13 37 52 51 53 10 16 14 16 19 24 24 22 19 17 18 16 15 24 30 25 25 21 19 20 16 13 13 12 14 14 11 11 8 6
9 6 17 18 26 18 20 26 31 29 34 37 35 10 18 52 60 44 49 35 10 24 15 21 22 29 27 22 23 24 23 19 27 27 22 25 24 21 18 12 11 10 11 11 11 10 9 7 5
11 3 16 18 16 9 21 25 31 21 22 24 39 17 23 53 51 39 37 36 22 15 20 23 29 28 30 27 28 29 29 27 25 30 30 30 22 16 17 18 15 14 13 9 11 11 10 9 8
9 8 11 5 11 7 23 15 29 8 24 32 31 31 38 47 43 40 33 37 30 16 24 23 25 27 27 28 31 34 31 30 26 29 34 35 33 28 24 25 21 17 17 15 15 14 13 11 11
10 8 7 9 14 10 17 26 23 15 41 26 47 43 47 46 44 41 39 36 37 26 21 27 35 28 28 23 26 38 38 35 32 30 26 25 25 23 25 29 22 21 21 20 19 17 15 13 13
14 9 19 12 9 10 13 17 31 32 20 35 47 58 56 50 45 42 42 39 36 30 27 31 36 43 39 37 30 36 44 41 36 38 35 28 23 33 29 32 29 26 25 23 21 20 18 18 15
11 17 18 12 10 10 8 2 20 28 19 28 33 40 46 54 50 47 48 46 37 30 29 28 37 43 45 36 43 39 46 47 48 47 41 41 39 47 41 37 29 24 26 22 23 21 20 21 19
23 16 19 9 14 14 22 15 3 30 29 29 33 38 45 49 51 51 47 45 43 39 32 27 29 43 45 47 47 49 47 48 52 50 41 40 44 44 32 27 26 23 21 22 23 25 25 25 23
21 25 17 16 11 9 9 4 18 24 26 32 37 39 44 48 53 55 53 51 48 46 45 35 31 37 52 51 55 52 56 47 40 39 44 46 44 38 33 31 29 29 27 28 25 25 23 25 25
30 13 13 18 2 4 11 12 12 21 27 34 39 40 44 50 56 58 57 60 55 53 49 49 40 36 42 62 59 51 59 55 53 38 46 49 49 40 40 35 31 29 30 29 29 29 31 30 28
7 10 7 7 11 6 2 10 15 22 30 39 42 44 49 51 57 61 65 59 56 59 55 48 47 42 46 48 63 50 63 66 54 58 59 54 52 52 45 41 34 30 29 30 33 32 29 28 25
9 2 8 8 8 7 11 9 13 21 32 40 44 49 54 57 63 73 71 66 55 61 64 57 47 48 43 52 62 65 66 64 52 64 62 53 52 50 50 44 38 34 33 35 35 29 31 30 26
5 4 3 3 7 12 7 8 6 17 34 43 46 54 61 66 77 80 77 78 72 68 69 64 54 48 54 48 55 64 66 68 59 56 69 58 56 53 48 45 43 38 36 36 36 34 33 33 29
13 12 8 7 7 8 12 11 6 15 37 44 52 56 57 67 85 93 93 91 81 72 77 70 66 55 44 45 66 62 74 73 67 57 61 69 59 54 49 51 49 48 47 42 38 36 35 37 32
13 7 7 2 4 6 16 16 12 8 33 44 48 56 68 96 92 99 98 93 89 85 82 72 65 54 50 59 61 64 68 77 66 63 60 59 63 59 56 54 50 49 48 43 40 40 41 40 32
12 9 9 8 12 16 14 13 13 10 38 40 51 51 69 88 87 102 106 99 87 76 69 66 58 45 56 61 49 63 60 64 73 68 68 64 60 61 63 57 56 51 48 49 43 46 45 45 40
2 8 7 12 10 2 2 7 9 14 19 33 50 52 67 74 77 85 99 98 83 75 62 52 45 39 56 60 47 63 62 65 67 66 68 68 61 58 63 62 64 60 52 49 48 46 45 48 48
5 6 7 8 9 8 11 3 3 14 17 23 39 50 66 77 76 85 97 95 86 74 64 45 36 36 46 58 45 57 54 63 53 56 54 55 57 53 54 56 54 56 56 56 57 55 52 51 54
2 9 9 6 6 2 10 8 6 7 6 17 35 50 57 67 73 79 98 105 94 68 62 31 25 15 28 39 46 50 47 55 39 40 45 38 32 48 55 59 56 50 59 57 52 53 57 54 52
7 7 3 6 3 7 11 3 4 10 15 25 33 45 56 67 74 88 95 109 105 81 70 67 27 5 20 30 48 50 48 40 42 37 25 38 41 29 18 3 4 20 30 29 50 60 54 50 51
4 5 3 7 4 6 9 5 7 12 32 34 40 45 57 69 70 86 86 93 103 88 77 62 60 54 43 35 44 46 40 35 49 54 51 53 47 45 43 47 46 24 12 23 29 35 34 29 33
7 4 5 1 2 1 7 7 5 14 16 35 42 50 58 65 66 77 84 87 94 102 89 83 72 68 71 71 78 75 66 63 59 61 62 54 55 52 55 52 59 58 45 50 49 49 43 37 37
4 3 2 1 2 7 3 4 4 13 21 21 35 46 52 57 61 67 81 87 81 90 93 92 88 87 81 91 94 94 87 76 71 69 70 64 62 61 61 60 58 60 59 51 54 54 47 48 48
5 4 4 3 2 4 5 5 7 11 11 13 27 34 42 48 52 58 71 79 84 80 86 92 100 98 91 96 100 99 98 92 81 73 68 68 66 59 61 67 60 46 41 34 34 36 33 31 29
6 4 11 5 7 6 3 8 9 7 14 19 23 28 34 38 43 49 57 70 88 88 84 83 86 99 105 96 92 90 85 82 72 69 60 55 47 45 45 43 39 37 32 31 31 31 29 26 23
Wind_Direction_850mb
273 273 337 345 250 0 4 31 43 26 7 349 323 323 93 51 6 50 32 349 99 236 215 194 188 187 181 182 191 186 179 178 174 172 171 178 180 153 155 155 148 40 17 11 19 120 106 105 106
242 238 340 275 228 55 41 341 24 36 46 0 3 342 48 57 22 32 347 11 135 232 233 206 189 194 193 198 201 197 204 193 188 177 171 147 147 151 171 173 103 346 346 348 321 130 116 113 108
164 90 283 210 50 64 148 5 354 17 30 14 356 35 58 351 6 349 331 36 161 225 237 214 206 201 199 205 221 213 208 205 197 183 179 164 158 173 233 270 291 301 312 308 181 138 124 124 117
96 230 255 267 99 58 49 9 12 1 34 12 349 68 74 37 12 353 339 82 197 233 241 233 219 206 206 221 225 217 208 199 194 189 183 196 189 184 210 254 284 281 268 245 167 146 139 133 120
4 262 243 132 89 92 46 11 11 6 30 13 21 77 91 10 12 9 5 128 163 207 251 272 230 223 216 228 229 212 203 203 194 180 182 190 192 241 241 251 267 264 238 216 168 167 162 151 137
268 268 347 93 76 46 32 6 13 9 23 18 2 348 102 349 353 9 358 351 170 188 246 248 243 226 227 227 217 196 189 195 184 176 194 201 214 230 249 269 266 252 205 180 193 186 187 185 190
314 19 45 62 107 60 22 1 24 2 26 34 356 54 325 347 345 1 352 355 238 200 256 253 255 229 228 228 212 201 193 186 192 202 210 211 220 216 247 266 282 247 214 193 188 200 207 215 238
326 49 77 18 64 71 20 8 23 16 43 33 24 17 333 336 339 349 347 357 338 219 220 244 246 236 234 230 216 207 206 194 206 224 234 240 245 237 244 264 267 249 247 213 209 218 227 242 260
337 56 75 47 30 39 20 5 8 336 43 31 14 358 335 334 343 344 348 341 352 320 235 228 232 247 250 245 221 207 207 219 223 231 234 245 241 245 251 260 259 242 243 238 234 237 243 253 268
32 86 112 56 35 20 15 31 2 1 26 0 349 352 347 346 348 346 342 335 334 339 299 229 232 226 230 236 245 209 216 215 223 226 235 243 232 254 272 259 253 248 243 242 242 243 246 256 265
9 112 128 86 71 31 7 36 45 20 20 359 340 341 345 347 347 344 336 331 324 324 323 273 238 230 227 212 229 229 225 221 227 234 217 234 210 233 240 259 265 254 246 242 242 245 247 250 256
90 83 101 114 85 22 58 26 72 44 10 340 341 342 345 346 347 343 333 332 333 324 318 296 266 230 229 230 219 229 233 228 222 230 226 215 204 227 242 254 254 246 237 241 244 249 252 255 260
90 97 96 96 144 41 97 70 24 28 3 356 354 356 357 353 347 342 338 331 324 316 290 292 280 254 229 228 223 215 236 228 224 228 224 218 221 232 247 250 249 253 242 246 231 249 252 262 262
126 116 115 72 130 29 107 142 57 18 1 4 5 4 360 358 352 345 342 333 329 319 308 280 277 274 240 230 230 228 231 231 223 225 226 230 232 232 242 247 246 240 239 240 247 245 259 269 273
127 111 113 34 77 59 325 85 56 12 5 9 7 6 4 0 356 350 340 333 323 318 311 299 265 268 269 236 234 229 233 234 226 221 233 245 226 233 240 248 249 246 240 240 244 250 251 258 263
241 187 176 53 359 161 299 112 56 18 11 11 5 4 2 358 356 348 337 324 325 313 308 295 287 251 268 263 238 233 231 239 236 222 235 244 229 226 237 246 250 252 244 241 251 248 261 265 263
201 224 80 146 28 294 229 80 67 25 19 9 4 4 1 354 354 346 337 331 323 315 302 298 275 267 250 259 247 237 226 239 238 225 228 235 232 229 233 238 248 251 242 238 247 249 253 257 257
159 134 15 346 37 316 264 164 106 29 25 7 5 7 1 359 352 347 336 326 323 307 305 299 285 265 239 253 253 238 234 233 240 225 221 226 231 234 233 242 245 246 246 245 245 247 243 255 255
16 35 357 78 60 329 253 274 192 41 29 6 9 5 6 356 348 347 344 340 328 314 308 295 287 256 248 241 244 236 233 231 228 231 227 227 231 232 239 241 243 248 252 253 249 243 245 247 245
4 320 43 316 90 290 298 276 282 56 40 12 11 7 6 358 353 349 346 339 333 320 314 296 277 265 237 228 246 241 234 236 233 227 231 227 227 229 233 241 253 247 250 252 250 242 239 247 246
60 13 11 316 318 250 282 267 189 105 35 7 13 8 1 357 348 346 346 342 339 331 317 300 276 263 230 220 240 238 236 238 234 231 228 230 230 234 236 240 246 251 253 254 252 253 244 243 243
225 40 325 295 338 356 331 292 97 44 17 10 7 7 358 355 351 347 343 349 347 347 333 307 282 265 231 203 233 230 230 225 233 235 237 235 241 238 241 242 245 250 251 249 254 260 255 245 242
72 340 308 299 296 16 191 100 40 57 0 4 0 7 356 357 352 350 354 358 357 2 351 313 291 269 221 199 229 228 231 231 235 239 250 243 234 230 229 231 238 246 247 245 250 254 254 250 251
343 248 219 267 256 317 121 97 314 21 341 3 12 6 356 357 355 358 8 14 5 16 18 347 308 261 208 200 223 226 225 225 227 220 221 232 222 206 217 225 231 235 236 242 245 251 252 247 245
220 252 301 350 349 236 130 161 125 57 37 20 21 4 1 2 0 4 10 11 10 16 38 44 43 134 195 212 214 196 198 194 175 149 133 101 92 64 49 308 296 295 304 292 248 260 250 238 239
73 357 160 228 297 319 140 226 145 74 46 29 24 7 11 9 6 11 15 17 19 17 39 59 62 76 102 163 149 153 150 138 125 121 107 101 91 81 77 76 81 85 131 133 125 109 111 134 118
142 187 19 57 360 320 232 111 107 44 32 28 22 9 13 9 8 9 16 24 29 32 32 48 66 73 91 84 99 107 106 106 104 102 101 98 95 98 93 92 90 82 80 87 90 87 89 83 86
317 59 102 1 304 280 214 227 188 14 11 17 20 8 11 11 13 14 22 25 33 41 37 51 67 65 90 95 99 104 105 108 107 103 97 96 99 101 98 89 86 87 82 82 85 85 81 79 81
166 181 214 18 254 261 296 247 65 43 25 26 30 13 17 15 17 20 30 32 40 44 49 48 56 65 78 84 94 94 94 97 97 97 97 95 97 92 90 86 82 86 88 89 85 85 84 83 83
331 302 183 147 204 252 5 271 109 83 59 49 42 20 22 24 22 29 41 47 47 52 58 58 60 58 65 69 75 78 85 84 84 94 85 90 89 89 91 94 94 91 86 85 83 80 76 69 66